Time,TemperatureF,DewpointF,PressureIn,WindDirection,WindDirectionDegrees,WindSpeedMPH,WindSpeedGustMPH,Humidity,HourlyPrecipIn,Conditions,Clouds,dailyrainin,SoftwareType,DateUTC
2013-08-20 00:13:00,72.0,58.0,30.02,NNE,16,0.0,0.0,61,0.00,,,0.00,,2013-08-20 04:13:00,
2013-08-20 00:23:00,72.0,58.0,30.02,NNE,16,0.0,0.0,62,0.00,,,0.00,,2013-08-20 04:23:00,
2013-08-20 00:53:00,71.0,59.0,30.02,NNE,16,0.0,0.0,65,0.00,,,0.00,,2013-08-20 04:53:00,
2013-08-20 01:22:00,70.0,59.0,30.02,NNE,16,0.0,0.0,67,0.00,,,0.00,,2013-08-20 05:22:00,
2013-08-20 01:52:00,70.0,59.0,30.02,NNE,16,0.0,0.0,69,0.00,,,0.00,,2013-08-20 05:52:00,
2013-08-20 02:21:00,69.0,59.0,30.02,NNE,16,0.0,0.0,70,0.00,,,0.00,,2013-08-20 06:21:00,
2013-08-20 02:52:00,68.0,60.0,30.02,NNE,16,0.0,0.0,75,0.00,,,0.00,,2013-08-20 06:52:00,
2013-08-20 03:22:00,67.0,60.0,30.02,NNE,16,0.0,0.0,79,0.00,,,0.00,,2013-08-20 07:22:00,
2013-08-20 03:52:00,67.0,61.0,30.02,NNE,16,0.0,0.0,82,0.00,,,0.00,,2013-08-20 07:52:00,
2013-08-20 04:21:00,66.0,61.0,30.02,NNE,16,0.0,0.0,84,0.00,,,0.00,,2013-08-20 08:21:00,
2013-08-20 04:52:00,66.0,61.0,30.02,NNE,16,0.0,0.0,85,0.00,,,0.00,,2013-08-20 08:52:00,
2013-08-20 05:21:00,66.0,62.0,30.02,NNE,16,0.0,0.0,87,0.00,,,0.00,,2013-08-20 09:21:00,
2013-08-20 05:53:00,66.0,62.0,30.02,NNE,16,0.0,0.0,88,0.00,,,0.00,,2013-08-20 09:53:00,
2013-08-20 06:22:00,65.0,62.0,30.02,NNE,16,0.0,0.0,90,0.00,,,0.00,,2013-08-20 10:22:00,
2013-08-20 06:52:00,65.0,63.0,30.02,NNE,16,0.0,0.0,92,0.00,,,0.00,,2013-08-20 10:52:00,
2013-08-20 07:22:00,64.0,62.0,30.02,NNE,16,0.0,0.0,92,0.00,,,0.00,,2013-08-20 11:22:00,
2013-08-20 07:52:00,64.0,62.0,30.02,NNE,16,0.0,0.0,93,0.00,,,0.00,,2013-08-20 11:52:00,
2013-08-20 08:21:00,65.0,64.0,30.02,NNE,16,0.0,0.0,95,0.00,,,0.00,,2013-08-20 12:21:00,
2013-08-20 08:52:00,66.0,65.0,30.02,NNE,16,0.0,0.0,95,0.00,,,0.00,,2013-08-20 12:52:00,
2013-08-20 09:22:00,68.0,66.0,30.02,NNE,16,0.0,0.0,93,0.00,,,0.00,,2013-08-20 13:22:00,
2013-08-20 09:52:00,70.0,68.0,30.02,NNE,16,0.0,0.0,92,0.00,,,0.00,,2013-08-20 13:52:00,
2013-08-20 10:21:00,73.0,68.0,30.02,NNE,16,0.0,0.0,84,0.00,,,0.00,,2013-08-20 14:21:00,
2013-08-20 10:52:00,75.0,68.0,30.02,NNE,16,0.0,0.0,78,0.00,,,0.00,,2013-08-20 14:52:00,
2013-08-20 11:22:00,78.0,66.0,30.02,NNE,16,0.0,0.0,67,0.00,,,0.00,,2013-08-20 15:22:00,
2013-08-20 11:53:00,80.0,66.0,30.02,NNE,16,0.0,0.0,63,0.00,,,0.00,,2013-08-20 15:53:00,
2013-08-20 12:30:00,-999.0,-99.9,30.02,ENE,68,0.0,0.0,58,0.00,,,0.00,,2013-08-20 16:30:00,
2013-08-20 12:52:00,82.0,63.0,30.02,ENE,77,2.0,5.0,53,0.00,,,0.00,,2013-08-20 16:52:00,
2013-08-20 13:24:00,83.0,59.0,30.02,ESE,110,0.0,0.0,44,0.00,,,0.00,,2013-08-20 17:24:00,
2013-08-20 13:52:00,85.0,57.0,30.02,SSW,205,1.0,5.0,39,0.00,,,0.00,,2013-08-20 17:52:00,
2013-08-20 14:22:00,86.0,56.0,30.02,East,97,0.0,0.0,36,0.00,,,0.00,,2013-08-20 18:22:00,
2013-08-20 14:52:00,87.0,56.0,30.02,ESE,110,0.0,0.0,35,0.00,,,0.00,,2013-08-20 18:52:00,
2013-08-20 15:22:00,87.0,55.0,30.02,SSE,155,0.0,0.0,34,0.00,,,0.00,,2013-08-20 19:22:00,
2013-08-20 17:55:00,87.0,57.0,30.02,ENE,76,0.0,0.0,36,0.00,,,0.00,,2013-08-20 21:55:00,
2013-08-20 18:24:00,87.0,58.0,30.02,ENE,59,0.0,0.0,37,0.00,,,0.00,,2013-08-20 22:24:00,
2013-08-20 19:22:00,84.0,59.0,30.02,ENE,59,0.0,0.0,43,0.00,,,0.00,,2013-08-20 23:22:00,
2013-08-20 19:52:00,83.0,60.0,30.02,ENE,59,0.0,0.0,46,0.00,,,0.00,,2013-08-20 23:52:00,
2013-08-20 20:23:00,82.0,60.0,30.02,ENE,59,0.0,0.0,47,0.00,,,0.00,,2013-08-21 00:23:00,
2013-08-20 20:52:00,81.0,60.0,30.02,ENE,64,0.0,0.0,49,0.00,,,0.00,,2013-08-21 00:52:00,
2013-08-20 21:22:00,80.0,61.0,30.02,ESE,106,0.0,0.0,52,0.00,,,0.00,,2013-08-21 01:22:00,
2013-08-20 21:52:00,79.0,61.0,30.02,East,79,0.0,0.0,54,0.00,,,0.00,,2013-08-21 01:52:00,
2013-08-20 22:22:00,78.0,61.0,30.02,East,85,0.0,0.0,55,0.00,,,0.00,,2013-08-21 02:22:00,
2013-08-20 22:52:00,78.0,62.0,30.02,SSE,167,0.0,0.0,57,0.00,,,0.00,,2013-08-21 02:52:00,
2013-08-20 23:23:00,77.0,61.0,30.02,SSE,167,0.0,0.0,57,0.00,,,0.00,,2013-08-21 03:23:00,
2013-08-20 23:55:00,76.0,60.0,30.02,SSE,167,0.0,0.0,58,0.00,,,0.00,,2013-08-21 03:55:00,